User: anonymous   Login
Location: Luz Observatory
(34.5000°N, 117.2833°W)
Time: 16:43:30
(UTC-07:00)
Language:

Cosmos 1452 Rocket - Orbit

View from above orbital plane
View from above orbital plane
View from above satellite
View from above satellite

Ground track
Ground track

The orbit data is extracted from the following two-line orbital elements,

1 13992U 83031B   17227.64944524 -.00000033  00000-0 -22528-5 0  9998
2 13992  74.0509 258.0859 0005999 233.8691 264.4131 14.36092726797343
Epoch (UTC): 15 August 2017 15:35:12
Eccentricity: 0.0005999
inclination: 74.0509°
perigee height: 767 km
apogee height: 776 km
right ascension of ascending node: 258.0859°
argument of perigee: 233.8691°
revolutions per day: 14.36092726
mean anomaly at epoch: 264.4131°
orbit number at epoch: 79734

The dashed part of the orbit path shows where the satellite is in the earth's shadow,  

DLR